Location: San Martino di Castrozza
(46.2667°N, 11.8000°E)
Time: 03:00:43
(UTC+00:00)

Gbstr 26 Del rocket - Pass Details

Date: 23 April 2021
Orbit: 493 x 1263 km, 51.8° (Epoch: 15 May)

Event Time Altitude Azimuth Distance (km) Brightness Sun altitude
Exits shadow 01:36:16 20° 281° (WNW) 1,965 5.3 -22.8°
Maximum altitude 01:40:18 51° 350° (N) 1,029 4.3 -22.3°
Drops below altitude 10° 01:45:15 10° 66° (ENE) 2,180 6.8 -21.8°
Sets 01:47:27 0° 72° (ENE) 2,992 7.5 -21.5°
